Index of /20260503/WXO-DD/model_caps/3km/12/006
Name Last modified Size Description
Parent Directory -
20260503T12Z_MSC_CAPS_AbsoluteVorticity_IsbL-0250_RLatLon0.03_PT006H.grib2 2026-05-03 18:08 1.1M
20260503T12Z_MSC_CAPS_AbsoluteVorticity_IsbL-0500_RLatLon0.03_PT006H.grib2 2026-05-03 18:08 1.1M
20260503T12Z_MSC_CAPS_AbsoluteVorticity_IsbL-0700_RLatLon0.03_PT006H.grib2 2026-05-03 18:08 1.3M
20260503T12Z_MSC_CAPS_AbsoluteVorticity_IsbL-0850_RLatLon0.03_PT006H.grib2 2026-05-03 18:08 1.5M
20260503T12Z_MSC_CAPS_AbsoluteVorticity_IsbL-1000_RLatLon0.03_PT006H.grib2 2026-05-03 18:08 1.3M
20260503T12Z_MSC_CAPS_AirDensity_AGL-120m_RLatLon0.03_PT006H.grib2 2026-05-03 18:08 1.4M
20260503T12Z_MSC_CAPS_AirDensity_AGL-40m_RLatLon0.03_PT006H.grib2 2026-05-03 18:08 1.4M
20260503T12Z_MSC_CAPS_AirDensity_AGL-80m_RLatLon0.03_PT006H.grib2 2026-05-03 18:08 1.4M
20260503T12Z_MSC_CAPS_AirTemp_AGL-120m_RLatLon0.03_PT006H.grib2 2026-05-03 18:08 1.4M
20260503T12Z_MSC_CAPS_AirTemp_AGL-2m_RLatLon0.03_PT006H.grib2 2026-05-03 18:08 1.8M
20260503T12Z_MSC_CAPS_AirTemp_AGL-40m_RLatLon0.03_PT006H.grib2 2026-05-03 18:08 1.5M
20260503T12Z_MSC_CAPS_AirTemp_AGL-80m_RLatLon0.03_PT006H.grib2 2026-05-03 18:08 1.4M
20260503T12Z_MSC_CAPS_AirTemp_IsbL-0050_RLatLon0.03_PT006H.grib2 2026-05-03 18:08 689K
20260503T12Z_MSC_CAPS_AirTemp_IsbL-0100_RLatLon0.03_PT006H.grib2 2026-05-03 18:08 726K
20260503T12Z_MSC_CAPS_AirTemp_IsbL-0150_RLatLon0.03_PT006H.grib2 2026-05-03 18:08 748K
20260503T12Z_MSC_CAPS_AirTemp_IsbL-0175_RLatLon0.03_PT006H.grib2 2026-05-03 18:08 764K
20260503T12Z_MSC_CAPS_AirTemp_IsbL-0200_RLatLon0.03_PT006H.grib2 2026-05-03 18:08 787K
20260503T12Z_MSC_CAPS_AirTemp_IsbL-0225_RLatLon0.03_PT006H.grib2 2026-05-03 18:08 792K
20260503T12Z_MSC_CAPS_AirTemp_IsbL-0250_RLatLon0.03_PT006H.grib2 2026-05-03 18:08 1.0M
20260503T12Z_MSC_CAPS_AirTemp_IsbL-0275_RLatLon0.03_PT006H.grib2 2026-05-03 18:08 1.0M
20260503T12Z_MSC_CAPS_AirTemp_IsbL-0300_RLatLon0.03_PT006H.grib2 2026-05-03 18:08 1.0M
20260503T12Z_MSC_CAPS_AirTemp_IsbL-0350_RLatLon0.03_PT006H.grib2 2026-05-03 18:08 749K
20260503T12Z_MSC_CAPS_AirTemp_IsbL-0400_RLatLon0.03_PT006H.grib2 2026-05-03 18:08 750K
20260503T12Z_MSC_CAPS_AirTemp_IsbL-0450_RLatLon0.03_PT006H.grib2 2026-05-03 18:08 763K
20260503T12Z_MSC_CAPS_AirTemp_IsbL-0500_RLatLon0.03_PT006H.grib2 2026-05-03 18:08 777K
20260503T12Z_MSC_CAPS_AirTemp_IsbL-0550_RLatLon0.03_PT006H.grib2 2026-05-03 18:08 946K
20260503T12Z_MSC_CAPS_AirTemp_IsbL-0600_RLatLon0.03_PT006H.grib2 2026-05-03 18:08 962K
20260503T12Z_MSC_CAPS_AirTemp_IsbL-0650_RLatLon0.03_PT006H.grib2 2026-05-03 18:08 1.0M
20260503T12Z_MSC_CAPS_AirTemp_IsbL-0700_RLatLon0.03_PT006H.grib2 2026-05-03 18:08 1.0M
20260503T12Z_MSC_CAPS_AirTemp_IsbL-0750_RLatLon0.03_PT006H.grib2 2026-05-03 18:08 1.0M
20260503T12Z_MSC_CAPS_AirTemp_IsbL-0800_RLatLon0.03_PT006H.grib2 2026-05-03 18:08 1.0M
20260503T12Z_MSC_CAPS_AirTemp_IsbL-0850_RLatLon0.03_PT006H.grib2 2026-05-03 18:08 1.1M
20260503T12Z_MSC_CAPS_AirTemp_IsbL-0875_RLatLon0.03_PT006H.grib2 2026-05-03 18:08 1.1M
20260503T12Z_MSC_CAPS_AirTemp_IsbL-0900_RLatLon0.03_PT006H.grib2 2026-05-03 18:08 1.1M
20260503T12Z_MSC_CAPS_AirTemp_IsbL-0925_RLatLon0.03_PT006H.grib2 2026-05-03 18:08 1.1M
20260503T12Z_MSC_CAPS_AirTemp_IsbL-0950_RLatLon0.03_PT006H.grib2 2026-05-03 18:08 1.1M
20260503T12Z_MSC_CAPS_AirTemp_IsbL-0970_RLatLon0.03_PT006H.grib2 2026-05-03 18:08 1.1M
20260503T12Z_MSC_CAPS_AirTemp_IsbL-0985_RLatLon0.03_PT006H.grib2 2026-05-03 18:08 1.1M
20260503T12Z_MSC_CAPS_AirTemp_IsbL-1000_RLatLon0.03_PT006H.grib2 2026-05-03 18:08 1.0M
20260503T12Z_MSC_CAPS_AirTemp_IsbL-1015_RLatLon0.03_PT006H.grib2 2026-05-03 18:08 1.1M
20260503T12Z_MSC_CAPS_Albedo_Sfc_RLatLon0.03_PT006H.grib2 2026-05-03 18:08 2.7M
20260503T12Z_MSC_CAPS_CAPE_Sfc_RLatLon0.03_PT006H.grib2 2026-05-03 18:08 178K
20260503T12Z_MSC_CAPS_CloudWater_EAtm_RLatLon0.03_PT006H.grib2 2026-05-03 18:08 1.4M
20260503T12Z_MSC_CAPS_ConvectivePrecip-Accum_Sfc_RLatLon0.03_PT006H.grib2 2026-05-03 18:08 1.7M
20260503T12Z_MSC_CAPS_DewPointDepression_AGL-120m_RLatLon0.03_PT006H.grib2 2026-05-03 18:08 2.0M
20260503T12Z_MSC_CAPS_DewPointDepression_AGL-2m_RLatLon0.03_PT006H.grib2 2026-05-03 18:08 2.2M
20260503T12Z_MSC_CAPS_DewPointDepression_AGL-40m_RLatLon0.03_PT006H.grib2 2026-05-03 18:08 2.1M
20260503T12Z_MSC_CAPS_DewPointDepression_AGL-80m_RLatLon0.03_PT006H.grib2 2026-05-03 18:08 2.0M
20260503T12Z_MSC_CAPS_DewPointDepression_IsbL-0050_RLatLon0.03_PT006H.grib2 2026-05-03 18:08 11K
20260503T12Z_MSC_CAPS_DewPointDepression_IsbL-0100_RLatLon0.03_PT006H.grib2 2026-05-03 18:08 92K
20260503T12Z_MSC_CAPS_DewPointDepression_IsbL-0150_RLatLon0.03_PT006H.grib2 2026-05-03 18:08 87K
20260503T12Z_MSC_CAPS_DewPointDepression_IsbL-0175_RLatLon0.03_PT006H.grib2 2026-05-03 18:08 213K
20260503T12Z_MSC_CAPS_DewPointDepression_IsbL-0200_RLatLon0.03_PT006H.grib2 2026-05-03 18:08 359K
20260503T12Z_MSC_CAPS_DewPointDepression_IsbL-0225_RLatLon0.03_PT006H.grib2 2026-05-03 18:08 610K
20260503T12Z_MSC_CAPS_DewPointDepression_IsbL-0250_RLatLon0.03_PT006H.grib2 2026-05-03 18:08 800K
20260503T12Z_MSC_CAPS_DewPointDepression_IsbL-0275_RLatLon0.03_PT006H.grib2 2026-05-03 18:08 940K
20260503T12Z_MSC_CAPS_DewPointDepression_IsbL-0300_RLatLon0.03_PT006H.grib2 2026-05-03 18:08 1.0M
20260503T12Z_MSC_CAPS_DewPointDepression_IsbL-0350_RLatLon0.03_PT006H.grib2 2026-05-03 18:08 1.0M
20260503T12Z_MSC_CAPS_DewPointDepression_IsbL-0400_RLatLon0.03_PT006H.grib2 2026-05-03 18:08 1.0M
20260503T12Z_MSC_CAPS_DewPointDepression_IsbL-0450_RLatLon0.03_PT006H.grib2 2026-05-03 18:08 1.1M
20260503T12Z_MSC_CAPS_DewPointDepression_IsbL-0500_RLatLon0.03_PT006H.grib2 2026-05-03 18:08 1.1M
20260503T12Z_MSC_CAPS_DewPointDepression_IsbL-0550_RLatLon0.03_PT006H.grib2 2026-05-03 18:08 1.1M
20260503T12Z_MSC_CAPS_DewPointDepression_IsbL-0600_RLatLon0.03_PT006H.grib2 2026-05-03 18:08 1.1M
20260503T12Z_MSC_CAPS_DewPointDepression_IsbL-0650_RLatLon0.03_PT006H.grib2 2026-05-03 18:08 1.2M
20260503T12Z_MSC_CAPS_DewPointDepression_IsbL-0700_RLatLon0.03_PT006H.grib2 2026-05-03 18:08 1.2M
20260503T12Z_MSC_CAPS_DewPointDepression_IsbL-0750_RLatLon0.03_PT006H.grib2 2026-05-03 18:08 1.2M
20260503T12Z_MSC_CAPS_DewPointDepression_IsbL-0800_RLatLon0.03_PT006H.grib2 2026-05-03 18:08 1.3M
20260503T12Z_MSC_CAPS_DewPointDepression_IsbL-0850_RLatLon0.03_PT006H.grib2 2026-05-03 18:08 1.3M
20260503T12Z_MSC_CAPS_DewPointDepression_IsbL-0875_RLatLon0.03_PT006H.grib2 2026-05-03 18:08 1.3M
20260503T12Z_MSC_CAPS_DewPointDepression_IsbL-0900_RLatLon0.03_PT006H.grib2 2026-05-03 18:08 1.3M
20260503T12Z_MSC_CAPS_DewPointDepression_IsbL-0925_RLatLon0.03_PT006H.grib2 2026-05-03 18:08 1.3M
20260503T12Z_MSC_CAPS_DewPointDepression_IsbL-0950_RLatLon0.03_PT006H.grib2 2026-05-03 18:08 1.3M
20260503T12Z_MSC_CAPS_DewPointDepression_IsbL-0970_RLatLon0.03_PT006H.grib2 2026-05-03 18:08 1.3M
20260503T12Z_MSC_CAPS_DewPointDepression_IsbL-0985_RLatLon0.03_PT006H.grib2 2026-05-03 18:08 1.3M
20260503T12Z_MSC_CAPS_DewPointDepression_IsbL-1000_RLatLon0.03_PT006H.grib2 2026-05-03 18:08 1.3M
20260503T12Z_MSC_CAPS_DewPointDepression_IsbL-1015_RLatLon0.03_PT006H.grib2 2026-05-03 18:08 1.3M
20260503T12Z_MSC_CAPS_DewPoint_AGL-120m_RLatLon0.03_PT006H.grib2 2026-05-03 18:08 3.6M
20260503T12Z_MSC_CAPS_DewPoint_AGL-2m_RLatLon0.03_PT006H.grib2 2026-05-03 18:08 1.8M
20260503T12Z_MSC_CAPS_DewPoint_AGL-40m_RLatLon0.03_PT006H.grib2 2026-05-03 18:08 3.7M
20260503T12Z_MSC_CAPS_DewPoint_AGL-80m_RLatLon0.03_PT006H.grib2 2026-05-03 18:08 3.6M
20260503T12Z_MSC_CAPS_DownwardLongwaveRadiationFlux-Accum_Sfc_RLatLon0.03_PT006H.grib2 2026-05-03 18:08 2.3M
20260503T12Z_MSC_CAPS_DownwardShortwaveRadiationFlux-Accum_NTAtm_RLatLon0.03_PT006H.grib2 2026-05-03 18:08 365K
20260503T12Z_MSC_CAPS_DownwardShortwaveRadiationFlux-Accum_Sfc_RLatLon0.03_PT006H.grib2 2026-05-03 18:08 2.1M
20260503T12Z_MSC_CAPS_FreezingRain-Accum_Sfc_RLatLon0.03_PT006H.grib2 2026-05-03 18:08 255K
20260503T12Z_MSC_CAPS_GeopotentialHeight_IsbL-0050_RLatLon0.03_PT006H.grib2 2026-05-03 18:08 642K
20260503T12Z_MSC_CAPS_GeopotentialHeight_IsbL-0100_RLatLon0.03_PT006H.grib2 2026-05-03 18:08 764K
20260503T12Z_MSC_CAPS_GeopotentialHeight_IsbL-0150_RLatLon0.03_PT006H.grib2 2026-05-03 18:08 719K
20260503T12Z_MSC_CAPS_GeopotentialHeight_IsbL-0175_RLatLon0.03_PT006H.grib2 2026-05-03 18:08 731K
20260503T12Z_MSC_CAPS_GeopotentialHeight_IsbL-0200_RLatLon0.03_PT006H.grib2 2026-05-03 18:08 743K
20260503T12Z_MSC_CAPS_GeopotentialHeight_IsbL-0225_RLatLon0.03_PT006H.grib2 2026-05-03 18:08 757K
20260503T12Z_MSC_CAPS_GeopotentialHeight_IsbL-0250_RLatLon0.03_PT006H.grib2 2026-05-03 18:08 766K
20260503T12Z_MSC_CAPS_GeopotentialHeight_IsbL-0275_RLatLon0.03_PT006H.grib2 2026-05-03 18:08 774K
20260503T12Z_MSC_CAPS_GeopotentialHeight_IsbL-0300_RLatLon0.03_PT006H.grib2 2026-05-03 18:08 780K
20260503T12Z_MSC_CAPS_GeopotentialHeight_IsbL-0350_RLatLon0.03_PT006H.grib2 2026-05-03 18:08 781K
20260503T12Z_MSC_CAPS_GeopotentialHeight_IsbL-0400_RLatLon0.03_PT006H.grib2 2026-05-03 18:08 775K
20260503T12Z_MSC_CAPS_GeopotentialHeight_IsbL-0450_RLatLon0.03_PT006H.grib2 2026-05-03 18:08 765K
20260503T12Z_MSC_CAPS_GeopotentialHeight_IsbL-0500_RLatLon0.03_PT006H.grib2 2026-05-03 18:08 758K
20260503T12Z_MSC_CAPS_GeopotentialHeight_IsbL-0550_RLatLon0.03_PT006H.grib2 2026-05-03 18:08 748K
20260503T12Z_MSC_CAPS_GeopotentialHeight_IsbL-0600_RLatLon0.03_PT006H.grib2 2026-05-03 18:08 629K
20260503T12Z_MSC_CAPS_GeopotentialHeight_IsbL-0650_RLatLon0.03_PT006H.grib2 2026-05-03 18:08 627K
20260503T12Z_MSC_CAPS_GeopotentialHeight_IsbL-0700_RLatLon0.03_PT006H.grib2 2026-05-03 18:08 629K
20260503T12Z_MSC_CAPS_GeopotentialHeight_IsbL-0750_RLatLon0.03_PT006H.grib2 2026-05-03 18:08 809K
20260503T12Z_MSC_CAPS_GeopotentialHeight_IsbL-0800_RLatLon0.03_PT006H.grib2 2026-05-03 18:08 814K
20260503T12Z_MSC_CAPS_GeopotentialHeight_IsbL-0850_RLatLon0.03_PT006H.grib2 2026-05-03 18:08 823K
20260503T12Z_MSC_CAPS_GeopotentialHeight_IsbL-0875_RLatLon0.03_PT006H.grib2 2026-05-03 18:08 814K
20260503T12Z_MSC_CAPS_GeopotentialHeight_IsbL-0900_RLatLon0.03_PT006H.grib2 2026-05-03 18:08 837K
20260503T12Z_MSC_CAPS_GeopotentialHeight_IsbL-0925_RLatLon0.03_PT006H.grib2 2026-05-03 18:08 850K
20260503T12Z_MSC_CAPS_GeopotentialHeight_IsbL-0950_RLatLon0.03_PT006H.grib2 2026-05-03 18:08 851K
20260503T12Z_MSC_CAPS_GeopotentialHeight_IsbL-0970_RLatLon0.03_PT006H.grib2 2026-05-03 18:08 866K
20260503T12Z_MSC_CAPS_GeopotentialHeight_IsbL-0985_RLatLon0.03_PT006H.grib2 2026-05-03 18:08 878K
20260503T12Z_MSC_CAPS_GeopotentialHeight_IsbL-1000_RLatLon0.03_PT006H.grib2 2026-05-03 18:08 886K
20260503T12Z_MSC_CAPS_GeopotentialHeight_IsbL-1015_RLatLon0.03_PT006H.grib2 2026-05-03 18:08 897K
20260503T12Z_MSC_CAPS_GeopotentialHeight_Sfc_RLatLon0.03_PT006H.grib2 2026-05-03 18:08 1.0M
20260503T12Z_MSC_CAPS_IcePellets-Accum_Sfc_RLatLon0.03_PT006H.grib2 2026-05-03 18:08 19K
20260503T12Z_MSC_CAPS_LatentHeatNetFlux_Sfc_RLatLon0.03_PT006H.grib2 2026-05-03 18:08 1.9M
20260503T12Z_MSC_CAPS_LiftedIndex-MU-VT_IsbL-0500_RLatLon0.03_PT006H.grib2 2026-05-03 18:08 3.3M
20260503T12Z_MSC_CAPS_MixedLayerThickness_Sfc_RLatLon0.03_PT006H.nc 2026-05-03 18:12 16M
20260503T12Z_MSC_CAPS_NetLongwaveRadiationFlux-Accum_Sfc_RLatLon0.03_PT006H.grib2 2026-05-03 18:08 2.6M
20260503T12Z_MSC_CAPS_NetShortwaveRadiationFlux-Accum_Sfc_RLatLon0.03_PT006H.grib2 2026-05-03 18:08 2.1M
20260503T12Z_MSC_CAPS_PlanetaryBoundaryLayerHeight_Sfc_RLatLon0.03_PT006H.grib2 2026-05-03 18:08 2.8M
20260503T12Z_MSC_CAPS_Precip-Accum_Sfc_RLatLon0.03_PT006H.grib2 2026-05-03 18:08 3.2M
20260503T12Z_MSC_CAPS_PrecipRate_Sfc_RLatLon0.03_PT006H.grib2 2026-05-03 18:08 408K
20260503T12Z_MSC_CAPS_PrecipType-Instant_Sfc_RLatLon0.03_PT006H.grib2 2026-05-03 18:08 1.4M
20260503T12Z_MSC_CAPS_Pressure_MSL_RLatLon0.03_PT006H.grib2 2026-05-03 18:08 773K
20260503T12Z_MSC_CAPS_Pressure_Sfc_RLatLon0.03_PT006H.grib2 2026-05-03 18:08 1.2M
20260503T12Z_MSC_CAPS_RadiativeTemp_Sfc_RLatLon0.03_PT006H.grib2 2026-05-03 18:08 2.1M
20260503T12Z_MSC_CAPS_Rain-Accum_Sfc_RLatLon0.03_PT006H.grib2 2026-05-03 18:08 1.2M
20260503T12Z_MSC_CAPS_RelativeHumidity_AGL-120m_RLatLon0.03_PT006H.grib2 2026-05-03 18:08 2.8M
20260503T12Z_MSC_CAPS_RelativeHumidity_AGL-2m_RLatLon0.03_PT006H.grib2 2026-05-03 18:08 2.9M
20260503T12Z_MSC_CAPS_RelativeHumidity_AGL-40m_RLatLon0.03_PT006H.grib2 2026-05-03 18:08 2.8M
20260503T12Z_MSC_CAPS_RelativeHumidity_AGL-80m_RLatLon0.03_PT006H.grib2 2026-05-03 18:08 2.8M
20260503T12Z_MSC_CAPS_RelativeHumidity_IsbL-0050_RLatLon0.03_PT006H.grib2 2026-05-03 18:08 713K
20260503T12Z_MSC_CAPS_RelativeHumidity_IsbL-0100_RLatLon0.03_PT006H.grib2 2026-05-03 18:08 844K
20260503T12Z_MSC_CAPS_RelativeHumidity_IsbL-0150_RLatLon0.03_PT006H.grib2 2026-05-03 18:08 604K
20260503T12Z_MSC_CAPS_RelativeHumidity_IsbL-0175_RLatLon0.03_PT006H.grib2 2026-05-03 18:08 463K
20260503T12Z_MSC_CAPS_RelativeHumidity_IsbL-0200_RLatLon0.03_PT006H.grib2 2026-05-03 18:08 620K
20260503T12Z_MSC_CAPS_RelativeHumidity_IsbL-0225_RLatLon0.03_PT006H.grib2 2026-05-03 18:08 843K
20260503T12Z_MSC_CAPS_RelativeHumidity_IsbL-0250_RLatLon0.03_PT006H.grib2 2026-05-03 18:08 1.1M
20260503T12Z_MSC_CAPS_RelativeHumidity_IsbL-0275_RLatLon0.03_PT006H.grib2 2026-05-03 18:08 1.4M
20260503T12Z_MSC_CAPS_RelativeHumidity_IsbL-0300_RLatLon0.03_PT006H.grib2 2026-05-03 18:08 1.6M
20260503T12Z_MSC_CAPS_RelativeHumidity_IsbL-0350_RLatLon0.03_PT006H.grib2 2026-05-03 18:08 1.9M
20260503T12Z_MSC_CAPS_RelativeHumidity_IsbL-0400_RLatLon0.03_PT006H.grib2 2026-05-03 18:08 2.0M
20260503T12Z_MSC_CAPS_RelativeHumidity_IsbL-0450_RLatLon0.03_PT006H.grib2 2026-05-03 18:08 1.9M
20260503T12Z_MSC_CAPS_RelativeHumidity_IsbL-0500_RLatLon0.03_PT006H.grib2 2026-05-03 18:08 2.0M
20260503T12Z_MSC_CAPS_RelativeHumidity_IsbL-0550_RLatLon0.03_PT006H.grib2 2026-05-03 18:08 2.0M
20260503T12Z_MSC_CAPS_RelativeHumidity_IsbL-0600_RLatLon0.03_PT006H.grib2 2026-05-03 18:08 2.2M
20260503T12Z_MSC_CAPS_RelativeHumidity_IsbL-0650_RLatLon0.03_PT006H.grib2 2026-05-03 18:08 2.2M
20260503T12Z_MSC_CAPS_RelativeHumidity_IsbL-0700_RLatLon0.03_PT006H.grib2 2026-05-03 18:08 2.2M
20260503T12Z_MSC_CAPS_RelativeHumidity_IsbL-0750_RLatLon0.03_PT006H.grib2 2026-05-03 18:08 2.3M
20260503T12Z_MSC_CAPS_RelativeHumidity_IsbL-0800_RLatLon0.03_PT006H.grib2 2026-05-03 18:08 2.3M
20260503T12Z_MSC_CAPS_RelativeHumidity_IsbL-0850_RLatLon0.03_PT006H.grib2 2026-05-03 18:08 2.5M
20260503T12Z_MSC_CAPS_RelativeHumidity_IsbL-0875_RLatLon0.03_PT006H.grib2 2026-05-03 18:08 2.5M
20260503T12Z_MSC_CAPS_RelativeHumidity_IsbL-0900_RLatLon0.03_PT006H.grib2 2026-05-03 18:08 2.6M
20260503T12Z_MSC_CAPS_RelativeHumidity_IsbL-0925_RLatLon0.03_PT006H.grib2 2026-05-03 18:08 2.6M
20260503T12Z_MSC_CAPS_RelativeHumidity_IsbL-0950_RLatLon0.03_PT006H.grib2 2026-05-03 18:08 2.7M
20260503T12Z_MSC_CAPS_RelativeHumidity_IsbL-0970_RLatLon0.03_PT006H.grib2 2026-05-03 18:08 2.7M
20260503T12Z_MSC_CAPS_RelativeHumidity_IsbL-0985_RLatLon0.03_PT006H.grib2 2026-05-03 18:08 2.8M
20260503T12Z_MSC_CAPS_RelativeHumidity_IsbL-1000_RLatLon0.03_PT006H.grib2 2026-05-03 18:08 2.8M
20260503T12Z_MSC_CAPS_RelativeHumidity_IsbL-1015_RLatLon0.03_PT006H.grib2 2026-05-03 18:08 2.9M
20260503T12Z_MSC_CAPS_Runoff-Accum_Sfc_RLatLon0.03_PT006H.grib2 2026-05-03 18:08 226K
20260503T12Z_MSC_CAPS_SeaIceAreaFraction_Sfc_RLatLon0.03_PT006H.nc 2026-05-03 18:12 15M
20260503T12Z_MSC_CAPS_SeaIceCompressiveStrength_Sfc_RLatLon0.03_PT006H.nc 2026-05-03 18:12 15M
20260503T12Z_MSC_CAPS_SeaIceDivergence_Sfc_RLatLon0.03_PT006H.nc 2026-05-03 18:12 15M
20260503T12Z_MSC_CAPS_SeaIceInternalPressure_Sfc_RLatLon0.03_PT006H.nc 2026-05-03 18:12 15M
20260503T12Z_MSC_CAPS_SeaIceShear_Sfc_RLatLon0.03_PT006H.nc 2026-05-03 18:12 14M
20260503T12Z_MSC_CAPS_SeaIceSnowTemp_Sfc_RLatLon0.03_PT006H.nc 2026-05-03 18:12 14M
20260503T12Z_MSC_CAPS_SeaIceSnowVolume_Sfc_RLatLon0.03_PT006H.nc 2026-05-03 18:12 15M
20260503T12Z_MSC_CAPS_SeaIceVelocityX_Sfc_RLatLon0.03_PT006H.nc 2026-05-03 18:12 15M
20260503T12Z_MSC_CAPS_SeaIceVelocityY_Sfc_RLatLon0.03_PT006H.nc 2026-05-03 18:12 15M
20260503T12Z_MSC_CAPS_SeaIceVolume_Sfc_RLatLon0.03_PT006H.nc 2026-05-03 18:12 15M
20260503T12Z_MSC_CAPS_SeaSurfaceHeight_Sfc_RLatLon0.03_PT006H.nc 2026-05-03 18:12 16M
20260503T12Z_MSC_CAPS_SeaWaterSalinity_DBS-0.5m_RLatLon0.03_PT006H.nc 2026-05-03 18:12 16M
20260503T12Z_MSC_CAPS_SeaWaterSalinity_DBS-all_RLatLon0.03_PT006H.nc 2026-05-03 18:12 107M
20260503T12Z_MSC_CAPS_SeaWaterTemp_DBS-0.5m_RLatLon0.03_PT006H.nc 2026-05-03 18:12 14M
20260503T12Z_MSC_CAPS_SeaWaterTemp_DBS-all_RLatLon0.03_PT006H.nc 2026-05-03 18:12 88M
20260503T12Z_MSC_CAPS_SeaWaterVelocityX_DBS-0.5m_RLatLon0.03_PT006H.nc 2026-05-03 18:12 17M
20260503T12Z_MSC_CAPS_SeaWaterVelocityX_DBS-all_RLatLon0.03_PT006H.nc 2026-05-03 18:12 199M
20260503T12Z_MSC_CAPS_SeaWaterVelocityY_DBS-0.5m_RLatLon0.03_PT006H.nc 2026-05-03 18:12 17M
20260503T12Z_MSC_CAPS_SeaWaterVelocityY_DBS-all_RLatLon0.03_PT006H.nc 2026-05-03 18:12 210M
20260503T12Z_MSC_CAPS_SensibleHeatNetFlux_Sfc_RLatLon0.03_PT006H.grib2 2026-05-03 18:08 2.2M
20260503T12Z_MSC_CAPS_ShowalterIndex_IsbL-0500_RLatLon0.03_PT006H.grib2 2026-05-03 18:08 4.3M
20260503T12Z_MSC_CAPS_Snow-Accum_Sfc_RLatLon0.03_PT006H.grib2 2026-05-03 18:08 2.4M
20260503T12Z_MSC_CAPS_SnowDensity_Sfc_RLatLon0.03_PT006H.grib2 2026-05-03 18:08 1.2M
20260503T12Z_MSC_CAPS_SnowDepthWaterEquivalent_Sfc_RLatLon0.03_PT006H.grib2 2026-05-03 18:08 659K
20260503T12Z_MSC_CAPS_SnowDepth_Sfc_RLatLon0.03_PT006H.grib2 2026-05-03 18:08 1.1M
20260503T12Z_MSC_CAPS_SoilTemp_DBS-0to10cm_RLatLon0.03_PT006H.grib2 2026-05-03 18:08 1.4M
20260503T12Z_MSC_CAPS_SoilTemp_Sfc_RLatLon0.03_PT006H.grib2 2026-05-03 18:08 1.9M
20260503T12Z_MSC_CAPS_SoilVolumetricIceContent_Sfc_RLatLon0.03_PT006H.grib2 2026-05-03 18:08 1.3M
20260503T12Z_MSC_CAPS_SoilVolumetricWaterContent_DBS-0to10cm_RLatLon0.03_PT006H.grib2 2026-05-03 18:08 1.2M
20260503T12Z_MSC_CAPS_SoilVolumetricWaterContent_DBS-0to1cm_RLatLon0.03_PT006H.grib2 2026-05-03 18:08 1.7M
20260503T12Z_MSC_CAPS_SpecificHumidity_AGL-120m_RLatLon0.03_PT006H.grib2 2026-05-03 18:08 1.4M
20260503T12Z_MSC_CAPS_SpecificHumidity_AGL-2m_RLatLon0.03_PT006H.grib2 2026-05-03 18:08 1.7M
20260503T12Z_MSC_CAPS_SpecificHumidity_AGL-40m_RLatLon0.03_PT006H.grib2 2026-05-03 18:08 1.5M
20260503T12Z_MSC_CAPS_SpecificHumidity_AGL-80m_RLatLon0.03_PT006H.grib2 2026-05-03 18:08 1.4M
20260503T12Z_MSC_CAPS_SpecificHumidity_IsbL-0050_RLatLon0.03_PT006H.grib2 2026-05-03 18:08 858K
20260503T12Z_MSC_CAPS_SpecificHumidity_IsbL-0100_RLatLon0.03_PT006H.grib2 2026-05-03 18:08 939K
20260503T12Z_MSC_CAPS_SpecificHumidity_IsbL-0150_RLatLon0.03_PT006H.grib2 2026-05-03 18:08 745K
20260503T12Z_MSC_CAPS_SpecificHumidity_IsbL-0175_RLatLon0.03_PT006H.grib2 2026-05-03 18:08 956K
20260503T12Z_MSC_CAPS_SpecificHumidity_IsbL-0200_RLatLon0.03_PT006H.grib2 2026-05-03 18:08 833K
20260503T12Z_MSC_CAPS_SpecificHumidity_IsbL-0225_RLatLon0.03_PT006H.grib2 2026-05-03 18:08 1.0M
20260503T12Z_MSC_CAPS_SpecificHumidity_IsbL-0250_RLatLon0.03_PT006H.grib2 2026-05-03 18:08 1.0M
20260503T12Z_MSC_CAPS_SpecificHumidity_IsbL-0275_RLatLon0.03_PT006H.grib2 2026-05-03 18:08 1.0M
20260503T12Z_MSC_CAPS_SpecificHumidity_IsbL-0300_RLatLon0.03_PT006H.grib2 2026-05-03 18:08 1.0M
20260503T12Z_MSC_CAPS_SpecificHumidity_IsbL-0350_RLatLon0.03_PT006H.grib2 2026-05-03 18:08 922K
20260503T12Z_MSC_CAPS_SpecificHumidity_IsbL-0400_RLatLon0.03_PT006H.grib2 2026-05-03 18:08 914K
20260503T12Z_MSC_CAPS_SpecificHumidity_IsbL-0450_RLatLon0.03_PT006H.grib2 2026-05-03 18:08 1.0M
20260503T12Z_MSC_CAPS_SpecificHumidity_IsbL-0500_RLatLon0.03_PT006H.grib2 2026-05-03 18:08 972K
20260503T12Z_MSC_CAPS_SpecificHumidity_IsbL-0550_RLatLon0.03_PT006H.grib2 2026-05-03 18:08 1.1M
20260503T12Z_MSC_CAPS_SpecificHumidity_IsbL-0600_RLatLon0.03_PT006H.grib2 2026-05-03 18:08 1.4M
20260503T12Z_MSC_CAPS_SpecificHumidity_IsbL-0650_RLatLon0.03_PT006H.grib2 2026-05-03 18:08 1.4M
20260503T12Z_MSC_CAPS_SpecificHumidity_IsbL-0700_RLatLon0.03_PT006H.grib2 2026-05-03 18:08 1.5M
20260503T12Z_MSC_CAPS_SpecificHumidity_IsbL-0750_RLatLon0.03_PT006H.grib2 2026-05-03 18:08 1.3M
20260503T12Z_MSC_CAPS_SpecificHumidity_IsbL-0800_RLatLon0.03_PT006H.grib2 2026-05-03 18:08 1.4M
20260503T12Z_MSC_CAPS_SpecificHumidity_IsbL-0850_RLatLon0.03_PT006H.grib2 2026-05-03 18:08 1.6M
20260503T12Z_MSC_CAPS_SpecificHumidity_IsbL-0875_RLatLon0.03_PT006H.grib2 2026-05-03 18:08 1.7M
20260503T12Z_MSC_CAPS_SpecificHumidity_IsbL-0900_RLatLon0.03_PT006H.grib2 2026-05-03 18:08 1.8M
20260503T12Z_MSC_CAPS_SpecificHumidity_IsbL-0925_RLatLon0.03_PT006H.grib2 2026-05-03 18:08 1.5M
20260503T12Z_MSC_CAPS_SpecificHumidity_IsbL-0950_RLatLon0.03_PT006H.grib2 2026-05-03 18:08 1.5M
20260503T12Z_MSC_CAPS_SpecificHumidity_IsbL-0970_RLatLon0.03_PT006H.grib2 2026-05-03 18:08 1.6M
20260503T12Z_MSC_CAPS_SpecificHumidity_IsbL-0985_RLatLon0.03_PT006H.grib2 2026-05-03 18:08 1.6M
20260503T12Z_MSC_CAPS_SpecificHumidity_IsbL-1000_RLatLon0.03_PT006H.grib2 2026-05-03 18:08 1.7M
20260503T12Z_MSC_CAPS_SpecificHumidity_IsbL-1015_RLatLon0.03_PT006H.grib2 2026-05-03 18:08 1.7M
20260503T12Z_MSC_CAPS_SpecificHumidity_Sfc_RLatLon0.03_PT006H.grib2 2026-05-03 18:08 2.0M
20260503T12Z_MSC_CAPS_StormRelativeHelicity_Sfc_RLatLon0.03_PT006H.grib2 2026-05-03 18:08 3.2M
20260503T12Z_MSC_CAPS_Thickness_IsbL-1000to0500_RLatLon0.03_PT006H.grib2 2026-05-03 18:08 472K
20260503T12Z_MSC_CAPS_TotalCloudCover_Sfc_RLatLon0.03_PT006H.grib2 2026-05-03 18:08 3.4M
20260503T12Z_MSC_CAPS_TurboclineDepth_Sfc_RLatLon0.03_PT006H.nc 2026-05-03 18:12 16M
20260503T12Z_MSC_CAPS_UpwardLongwaveRadiationFlux_NTAtm_RLatLon0.03_PT006H.grib2 2026-05-03 18:08 2.8M
20260503T12Z_MSC_CAPS_UpwardShortwaveRadiationFlux_NTAtm_RLatLon0.03_PT006H.grib2 2026-05-03 18:08 2.5M
20260503T12Z_MSC_CAPS_VerticalVelocity_IsbL-0250_RLatLon0.03_PT006H.grib2 2026-05-03 18:08 1.2M
20260503T12Z_MSC_CAPS_VerticalVelocity_IsbL-0500_RLatLon0.03_PT006H.grib2 2026-05-03 18:08 1.0M
20260503T12Z_MSC_CAPS_VerticalVelocity_IsbL-0700_RLatLon0.03_PT006H.grib2 2026-05-03 18:08 1.1M
20260503T12Z_MSC_CAPS_VerticalVelocity_IsbL-0850_RLatLon0.03_PT006H.grib2 2026-05-03 18:08 1.4M
20260503T12Z_MSC_CAPS_VerticalVelocity_IsbL-1000_RLatLon0.03_PT006H.grib2 2026-05-03 18:08 1.4M
20260503T12Z_MSC_CAPS_WindDir_AGL-10m_RLatLon0.03_PT006H.grib2 2026-05-03 18:08 2.4M
20260503T12Z_MSC_CAPS_WindDir_AGL-120m_RLatLon0.03_PT006H.grib2 2026-05-03 18:08 1.3M
20260503T12Z_MSC_CAPS_WindDir_AGL-40m_RLatLon0.03_PT006H.grib2 2026-05-03 18:08 1.4M
20260503T12Z_MSC_CAPS_WindDir_AGL-80m_RLatLon0.03_PT006H.grib2 2026-05-03 18:08 1.3M
20260503T12Z_MSC_CAPS_WindDir_IsbL-0050_RLatLon0.03_PT006H.grib2 2026-05-03 18:08 1.0M
20260503T12Z_MSC_CAPS_WindDir_IsbL-0100_RLatLon0.03_PT006H.grib2 2026-05-03 18:08 1.1M
20260503T12Z_MSC_CAPS_WindDir_IsbL-0150_RLatLon0.03_PT006H.grib2 2026-05-03 18:08 1.0M
20260503T12Z_MSC_CAPS_WindDir_IsbL-0175_RLatLon0.03_PT006H.grib2 2026-05-03 18:08 1.2M
20260503T12Z_MSC_CAPS_WindDir_IsbL-0200_RLatLon0.03_PT006H.grib2 2026-05-03 18:08 1.1M
20260503T12Z_MSC_CAPS_WindDir_IsbL-0225_RLatLon0.03_PT006H.grib2 2026-05-03 18:08 1.1M
20260503T12Z_MSC_CAPS_WindDir_IsbL-0250_RLatLon0.03_PT006H.grib2 2026-05-03 18:08 1.1M
20260503T12Z_MSC_CAPS_WindDir_IsbL-0275_RLatLon0.03_PT006H.grib2 2026-05-03 18:08 1.1M
20260503T12Z_MSC_CAPS_WindDir_IsbL-0300_RLatLon0.03_PT006H.grib2 2026-05-03 18:08 1.1M
20260503T12Z_MSC_CAPS_WindDir_IsbL-0350_RLatLon0.03_PT006H.grib2 2026-05-03 18:08 1.1M
20260503T12Z_MSC_CAPS_WindDir_IsbL-0400_RLatLon0.03_PT006H.grib2 2026-05-03 18:08 1.1M
20260503T12Z_MSC_CAPS_WindDir_IsbL-0450_RLatLon0.03_PT006H.grib2 2026-05-03 18:08 1.2M
20260503T12Z_MSC_CAPS_WindDir_IsbL-0500_RLatLon0.03_PT006H.grib2 2026-05-03 18:08 1.2M
20260503T12Z_MSC_CAPS_WindDir_IsbL-0550_RLatLon0.03_PT006H.grib2 2026-05-03 18:08 1.2M
20260503T12Z_MSC_CAPS_WindDir_IsbL-0600_RLatLon0.03_PT006H.grib2 2026-05-03 18:08 1.2M
20260503T12Z_MSC_CAPS_WindDir_IsbL-0650_RLatLon0.03_PT006H.grib2 2026-05-03 18:08 1.3M
20260503T12Z_MSC_CAPS_WindDir_IsbL-0700_RLatLon0.03_PT006H.grib2 2026-05-03 18:08 1.4M
20260503T12Z_MSC_CAPS_WindDir_IsbL-0750_RLatLon0.03_PT006H.grib2 2026-05-03 18:08 1.5M
20260503T12Z_MSC_CAPS_WindDir_IsbL-0800_RLatLon0.03_PT006H.grib2 2026-05-03 18:08 1.6M
20260503T12Z_MSC_CAPS_WindDir_IsbL-0850_RLatLon0.03_PT006H.grib2 2026-05-03 18:08 1.7M
20260503T12Z_MSC_CAPS_WindDir_IsbL-0875_RLatLon0.03_PT006H.grib2 2026-05-03 18:08 1.8M
20260503T12Z_MSC_CAPS_WindDir_IsbL-0900_RLatLon0.03_PT006H.grib2 2026-05-03 18:08 1.8M
20260503T12Z_MSC_CAPS_WindDir_IsbL-0925_RLatLon0.03_PT006H.grib2 2026-05-03 18:08 1.9M
20260503T12Z_MSC_CAPS_WindDir_IsbL-0950_RLatLon0.03_PT006H.grib2 2026-05-03 18:08 2.0M
20260503T12Z_MSC_CAPS_WindDir_IsbL-0970_RLatLon0.03_PT006H.grib2 2026-05-03 18:08 2.1M
20260503T12Z_MSC_CAPS_WindDir_IsbL-0985_RLatLon0.03_PT006H.grib2 2026-05-03 18:08 2.2M
20260503T12Z_MSC_CAPS_WindDir_IsbL-1000_RLatLon0.03_PT006H.grib2 2026-05-03 18:08 2.3M
20260503T12Z_MSC_CAPS_WindDir_IsbL-1015_RLatLon0.03_PT006H.grib2 2026-05-03 18:08 2.3M
20260503T12Z_MSC_CAPS_WindGust-Max_AGL-10m_RLatLon0.03_PT006H.grib2 2026-05-03 18:08 2.5M
20260503T12Z_MSC_CAPS_WindGust-Min_AGL-10m_RLatLon0.03_PT006H.grib2 2026-05-03 18:08 2.4M
20260503T12Z_MSC_CAPS_WindGust_AGL-10m_RLatLon0.03_PT006H.grib2 2026-05-03 18:08 2.5M
20260503T12Z_MSC_CAPS_WindSpeed_AGL-10m_RLatLon0.03_PT006H.grib2 2026-05-03 18:08 2.1M
20260503T12Z_MSC_CAPS_WindSpeed_AGL-120m_RLatLon0.03_PT006H.grib2 2026-05-03 18:08 1.2M
20260503T12Z_MSC_CAPS_WindSpeed_AGL-40m_RLatLon0.03_PT006H.grib2 2026-05-03 18:08 1.2M
20260503T12Z_MSC_CAPS_WindSpeed_AGL-80m_RLatLon0.03_PT006H.grib2 2026-05-03 18:08 1.1M
20260503T12Z_MSC_CAPS_WindSpeed_IsbL-0050_RLatLon0.03_PT006H.grib2 2026-05-03 18:08 936K
20260503T12Z_MSC_CAPS_WindSpeed_IsbL-0100_RLatLon0.03_PT006H.grib2 2026-05-03 18:08 1.0M
20260503T12Z_MSC_CAPS_WindSpeed_IsbL-0150_RLatLon0.03_PT006H.grib2 2026-05-03 18:08 1.1M
20260503T12Z_MSC_CAPS_WindSpeed_IsbL-0175_RLatLon0.03_PT006H.grib2 2026-05-03 18:08 1.2M
20260503T12Z_MSC_CAPS_WindSpeed_IsbL-0200_RLatLon0.03_PT006H.grib2 2026-05-03 18:08 938K
20260503T12Z_MSC_CAPS_WindSpeed_IsbL-0225_RLatLon0.03_PT006H.grib2 2026-05-03 18:08 955K
20260503T12Z_MSC_CAPS_WindSpeed_IsbL-0250_RLatLon0.03_PT006H.grib2 2026-05-03 18:08 1.0M
20260503T12Z_MSC_CAPS_WindSpeed_IsbL-0275_RLatLon0.03_PT006H.grib2 2026-05-03 18:08 1.0M
20260503T12Z_MSC_CAPS_WindSpeed_IsbL-0300_RLatLon0.03_PT006H.grib2 2026-05-03 18:08 1.0M
20260503T12Z_MSC_CAPS_WindSpeed_IsbL-0350_RLatLon0.03_PT006H.grib2 2026-05-03 18:08 1.0M
20260503T12Z_MSC_CAPS_WindSpeed_IsbL-0400_RLatLon0.03_PT006H.grib2 2026-05-03 18:08 1.0M
20260503T12Z_MSC_CAPS_WindSpeed_IsbL-0450_RLatLon0.03_PT006H.grib2 2026-05-03 18:08 1.0M
20260503T12Z_MSC_CAPS_WindSpeed_IsbL-0500_RLatLon0.03_PT006H.grib2 2026-05-03 18:08 1.4M
20260503T12Z_MSC_CAPS_WindSpeed_IsbL-0550_RLatLon0.03_PT006H.grib2 2026-05-03 18:08 1.3M
20260503T12Z_MSC_CAPS_WindSpeed_IsbL-0600_RLatLon0.03_PT006H.grib2 2026-05-03 18:08 1.4M
20260503T12Z_MSC_CAPS_WindSpeed_IsbL-0650_RLatLon0.03_PT006H.grib2 2026-05-03 18:08 1.5M
20260503T12Z_MSC_CAPS_WindSpeed_IsbL-0700_RLatLon0.03_PT006H.grib2 2026-05-03 18:08 1.4M
20260503T12Z_MSC_CAPS_WindSpeed_IsbL-0750_RLatLon0.03_PT006H.grib2 2026-05-03 18:08 1.5M
20260503T12Z_MSC_CAPS_WindSpeed_IsbL-0800_RLatLon0.03_PT006H.grib2 2026-05-03 18:08 1.6M
20260503T12Z_MSC_CAPS_WindSpeed_IsbL-0850_RLatLon0.03_PT006H.grib2 2026-05-03 18:08 1.7M
20260503T12Z_MSC_CAPS_WindSpeed_IsbL-0875_RLatLon0.03_PT006H.grib2 2026-05-03 18:08 1.7M
20260503T12Z_MSC_CAPS_WindSpeed_IsbL-0900_RLatLon0.03_PT006H.grib2 2026-05-03 18:08 1.7M
20260503T12Z_MSC_CAPS_WindSpeed_IsbL-0925_RLatLon0.03_PT006H.grib2 2026-05-03 18:08 1.8M
20260503T12Z_MSC_CAPS_WindSpeed_IsbL-0950_RLatLon0.03_PT006H.grib2 2026-05-03 18:08 1.9M
20260503T12Z_MSC_CAPS_WindSpeed_IsbL-0970_RLatLon0.03_PT006H.grib2 2026-05-03 18:08 2.0M
20260503T12Z_MSC_CAPS_WindSpeed_IsbL-0985_RLatLon0.03_PT006H.grib2 2026-05-03 18:08 2.0M
20260503T12Z_MSC_CAPS_WindSpeed_IsbL-1000_RLatLon0.03_PT006H.grib2 2026-05-03 18:08 2.0M
20260503T12Z_MSC_CAPS_WindSpeed_IsbL-1015_RLatLon0.03_PT006H.grib2 2026-05-03 18:08 2.1M
20260503T12Z_MSC_CAPS_WindU_AGL-10m_RLatLon0.03_PT006H.grib2 2026-05-03 18:08 2.0M
20260503T12Z_MSC_CAPS_WindU_AGL-120m_RLatLon0.03_PT006H.grib2 2026-05-03 18:08 1.2M
20260503T12Z_MSC_CAPS_WindU_AGL-40m_RLatLon0.03_PT006H.grib2 2026-05-03 18:08 1.2M
20260503T12Z_MSC_CAPS_WindU_AGL-80m_RLatLon0.03_PT006H.grib2 2026-05-03 18:08 1.2M
20260503T12Z_MSC_CAPS_WindU_IsbL-0050_RLatLon0.03_PT006H.grib2 2026-05-03 18:08 943K
20260503T12Z_MSC_CAPS_WindU_IsbL-0100_RLatLon0.03_PT006H.grib2 2026-05-03 18:08 1.0M
20260503T12Z_MSC_CAPS_WindU_IsbL-0150_RLatLon0.03_PT006H.grib2 2026-05-03 18:08 715K
20260503T12Z_MSC_CAPS_WindU_IsbL-0175_RLatLon0.03_PT006H.grib2 2026-05-03 18:08 851K
20260503T12Z_MSC_CAPS_WindU_IsbL-0200_RLatLon0.03_PT006H.grib2 2026-05-03 18:08 868K
20260503T12Z_MSC_CAPS_WindU_IsbL-0225_RLatLon0.03_PT006H.grib2 2026-05-03 18:08 889K
20260503T12Z_MSC_CAPS_WindU_IsbL-0250_RLatLon0.03_PT006H.grib2 2026-05-03 18:08 913K
20260503T12Z_MSC_CAPS_WindU_IsbL-0275_RLatLon0.03_PT006H.grib2 2026-05-03 18:08 919K
20260503T12Z_MSC_CAPS_WindU_IsbL-0300_RLatLon0.03_PT006H.grib2 2026-05-03 18:08 926K
20260503T12Z_MSC_CAPS_WindU_IsbL-0350_RLatLon0.03_PT006H.grib2 2026-05-03 18:08 943K
20260503T12Z_MSC_CAPS_WindU_IsbL-0400_RLatLon0.03_PT006H.grib2 2026-05-03 18:08 948K
20260503T12Z_MSC_CAPS_WindU_IsbL-0450_RLatLon0.03_PT006H.grib2 2026-05-03 18:08 961K
20260503T12Z_MSC_CAPS_WindU_IsbL-0500_RLatLon0.03_PT006H.grib2 2026-05-03 18:08 1.0M
20260503T12Z_MSC_CAPS_WindU_IsbL-0550_RLatLon0.03_PT006H.grib2 2026-05-03 18:08 898K
20260503T12Z_MSC_CAPS_WindU_IsbL-0600_RLatLon0.03_PT006H.grib2 2026-05-03 18:08 934K
20260503T12Z_MSC_CAPS_WindU_IsbL-0650_RLatLon0.03_PT006H.grib2 2026-05-03 18:08 1.2M
20260503T12Z_MSC_CAPS_WindU_IsbL-0700_RLatLon0.03_PT006H.grib2 2026-05-03 18:08 1.3M
20260503T12Z_MSC_CAPS_WindU_IsbL-0750_RLatLon0.03_PT006H.grib2 2026-05-03 18:08 1.3M
20260503T12Z_MSC_CAPS_WindU_IsbL-0800_RLatLon0.03_PT006H.grib2 2026-05-03 18:08 1.4M
20260503T12Z_MSC_CAPS_WindU_IsbL-0850_RLatLon0.03_PT006H.grib2 2026-05-03 18:08 1.5M
20260503T12Z_MSC_CAPS_WindU_IsbL-0875_RLatLon0.03_PT006H.grib2 2026-05-03 18:08 1.2M
20260503T12Z_MSC_CAPS_WindU_IsbL-0900_RLatLon0.03_PT006H.grib2 2026-05-03 18:08 1.2M
20260503T12Z_MSC_CAPS_WindU_IsbL-0925_RLatLon0.03_PT006H.grib2 2026-05-03 18:08 1.3M
20260503T12Z_MSC_CAPS_WindU_IsbL-0950_RLatLon0.03_PT006H.grib2 2026-05-03 18:08 1.3M
20260503T12Z_MSC_CAPS_WindU_IsbL-0970_RLatLon0.03_PT006H.grib2 2026-05-03 18:08 1.4M
20260503T12Z_MSC_CAPS_WindU_IsbL-0985_RLatLon0.03_PT006H.grib2 2026-05-03 18:08 1.8M
20260503T12Z_MSC_CAPS_WindU_IsbL-1000_RLatLon0.03_PT006H.grib2 2026-05-03 18:08 1.8M
20260503T12Z_MSC_CAPS_WindU_IsbL-1015_RLatLon0.03_PT006H.grib2 2026-05-03 18:08 1.9M
20260503T12Z_MSC_CAPS_WindV_AGL-10m_RLatLon0.03_PT006H.grib2 2026-05-03 18:08 1.9M
20260503T12Z_MSC_CAPS_WindV_AGL-120m_RLatLon0.03_PT006H.grib2 2026-05-03 18:08 895K
20260503T12Z_MSC_CAPS_WindV_AGL-40m_RLatLon0.03_PT006H.grib2 2026-05-03 18:08 1.2M
20260503T12Z_MSC_CAPS_WindV_AGL-80m_RLatLon0.03_PT006H.grib2 2026-05-03 18:08 1.2M
20260503T12Z_MSC_CAPS_WindV_IsbL-0050_RLatLon0.03_PT006H.grib2 2026-05-03 18:08 766K
20260503T12Z_MSC_CAPS_WindV_IsbL-0100_RLatLon0.03_PT006H.grib2 2026-05-03 18:08 1.0M
20260503T12Z_MSC_CAPS_WindV_IsbL-0150_RLatLon0.03_PT006H.grib2 2026-05-03 18:08 719K
20260503T12Z_MSC_CAPS_WindV_IsbL-0175_RLatLon0.03_PT006H.grib2 2026-05-03 18:08 854K
20260503T12Z_MSC_CAPS_WindV_IsbL-0200_RLatLon0.03_PT006H.grib2 2026-05-03 18:08 662K
20260503T12Z_MSC_CAPS_WindV_IsbL-0225_RLatLon0.03_PT006H.grib2 2026-05-03 18:08 679K
20260503T12Z_MSC_CAPS_WindV_IsbL-0250_RLatLon0.03_PT006H.grib2 2026-05-03 18:08 699K
20260503T12Z_MSC_CAPS_WindV_IsbL-0275_RLatLon0.03_PT006H.grib2 2026-05-03 18:08 709K
20260503T12Z_MSC_CAPS_WindV_IsbL-0300_RLatLon0.03_PT006H.grib2 2026-05-03 18:08 718K
20260503T12Z_MSC_CAPS_WindV_IsbL-0350_RLatLon0.03_PT006H.grib2 2026-05-03 18:08 728K
20260503T12Z_MSC_CAPS_WindV_IsbL-0400_RLatLon0.03_PT006H.grib2 2026-05-03 18:08 947K
20260503T12Z_MSC_CAPS_WindV_IsbL-0450_RLatLon0.03_PT006H.grib2 2026-05-03 18:08 961K
20260503T12Z_MSC_CAPS_WindV_IsbL-0500_RLatLon0.03_PT006H.grib2 2026-05-03 18:08 1.0M
20260503T12Z_MSC_CAPS_WindV_IsbL-0550_RLatLon0.03_PT006H.grib2 2026-05-03 18:08 898K
20260503T12Z_MSC_CAPS_WindV_IsbL-0600_RLatLon0.03_PT006H.grib2 2026-05-03 18:08 932K
20260503T12Z_MSC_CAPS_WindV_IsbL-0650_RLatLon0.03_PT006H.grib2 2026-05-03 18:08 973K
20260503T12Z_MSC_CAPS_WindV_IsbL-0700_RLatLon0.03_PT006H.grib2 2026-05-03 18:08 1.3M
20260503T12Z_MSC_CAPS_WindV_IsbL-0750_RLatLon0.03_PT006H.grib2 2026-05-03 18:08 1.0M
20260503T12Z_MSC_CAPS_WindV_IsbL-0800_RLatLon0.03_PT006H.grib2 2026-05-03 18:08 1.1M
20260503T12Z_MSC_CAPS_WindV_IsbL-0850_RLatLon0.03_PT006H.grib2 2026-05-03 18:08 1.5M
20260503T12Z_MSC_CAPS_WindV_IsbL-0875_RLatLon0.03_PT006H.grib2 2026-05-03 18:08 1.5M
20260503T12Z_MSC_CAPS_WindV_IsbL-0900_RLatLon0.03_PT006H.grib2 2026-05-03 18:08 1.6M
20260503T12Z_MSC_CAPS_WindV_IsbL-0925_RLatLon0.03_PT006H.grib2 2026-05-03 18:08 1.3M
20260503T12Z_MSC_CAPS_WindV_IsbL-0950_RLatLon0.03_PT006H.grib2 2026-05-03 18:08 1.3M
20260503T12Z_MSC_CAPS_WindV_IsbL-0970_RLatLon0.03_PT006H.grib2 2026-05-03 18:08 1.4M
20260503T12Z_MSC_CAPS_WindV_IsbL-0985_RLatLon0.03_PT006H.grib2 2026-05-03 18:08 1.4M
20260503T12Z_MSC_CAPS_WindV_IsbL-1000_RLatLon0.03_PT006H.grib2 2026-05-03 18:08 1.8M
20260503T12Z_MSC_CAPS_WindV_IsbL-1015_RLatLon0.03_PT006H.grib2 2026-05-03 18:08 1.8M